Retour au catalogue

SL-14 DEB

LostPO
NORAD 25832·DEBRIS·🇷🇺 Russia

Lancé Oct 26, 1978 depuis Plesetsk Cosmodrome

Loading…

Prochains Passages (prochaines 24 heures)

TLE

PériméSource: Space-Track

Époque: Nov 8, 2025, 07:07 UTC

1 25832U 78100AU  25312.29665590  .00000052  00000-0  55054-3 0  9990
2 25832  82.5465 153.2016 0010838  12.2112 165.5206 11.97589059210180

Suivez SL-14 DEB en temps réel avec AllMySat

Download on the App Store